FW3211 Weather Reports


Display with metric or nautical units.
time (UTC)temp
F
wind
direction
speed
MPH
gust
MPH
rain 1hr
in
rain 24hr
in
rain mn
in
humidity
%
barometer
mb
20260905155643 76 176 1.0 2.0 0.00 0.00 0.00 76 1020.4
20260905155630 76 176 1.0 2.0 0.00 0.00 0.00 76 1020.4
20260905154605 76 176 1.0 6.0 0.00 0.00 0.00 77 1020.4
20260905154104 76 176 1.0 6.0 0.00 0.00 0.00 76 1020.4
20260905153607 76 167 1.0 5.0 0.00 0.00 0.00 77 1020.5
20260905153109 76 154 1.0 3.0 0.00 0.00 0.00 77 1020.5
20260905152605 76 154 1.0 4.0 0.00 0.00 0.00 77 1020.4
20260905152105 76 156 2.0 4.0 0.00 0.00 0.00 77 1020.5
20260905151606 76 179 2.0 4.0 0.00 0.00 0.00 77 1020.5
20260905151105 76 99 2.0 5.0 0.00 0.00 0.00 77 1020.5
20260905150602 77 224 2.0 5.0 0.00 0.00 0.00 76 1020.5
20260905150055 77 191 2.0 4.0 0.00 0.00 0.00 76 1020.5
20260905145549 77 127 2.0 4.0 0.00 0.00 0.00 76 1020.5
20260905145040 77 225 2.0 6.0 0.00 0.00 0.00 76 1020.6
20260905144537 77 114 2.0 6.0 0.00 0.00 0.00 76 1020.6
20260905144037 77 158 2.0 5.0 0.00 0.00 0.00 75 1020.6
20260905143538 77 144 2.0 5.0 0.00 0.00 0.00 75 1020.7
20260905143035 77 177 2.0 5.0 0.00 0.00 0.00 75 1020.6
20260905142533 77 191 2.0 5.0 0.00 0.00 0.00 75 1020.6
20260905142033 78 203 2.0 7.0 0.00 0.00 0.00 75 1020.7
20260905141535 78 185 3.0 8.0 0.00 0.00 0.00 74 1020.7
20260905141034 78 195 3.0 8.0 0.00 0.00 0.00 75 1020.7
20260905140535 78 132 3.0 6.0 0.00 0.00 0.00 74 1020.7
20260905140038 78 139 2.0 7.0 0.00 0.00 0.00 73 1020.7
20260905135818 78 201 2.0 7.0 0.00 0.00 0.00 73 1020.7
20260905135032 78 216 2.0 6.0 0.00 0.00 0.00 73 1020.8
20260905134532 78 202 2.0 6.0 0.00 0.00 0.00 73 1020.7
20260905134033 78 153 2.0 6.0 0.00 0.00 0.00 73 1020.7
20260905133832 78 179 2.0 4.0 0.00 0.00 0.00 72 1020.8
20260905133032 78 181 2.0 5.0 0.00 0.00 0.00 72 1020.9
20260905132835 78 168 2.0 5.0 0.00 0.00 0.00 73 1020.9
20260905132325 78 116 2.0 5.0 0.00 0.00 0.00 73 1020.9
20260905131532 78 166 2.0 5.0 0.00 0.00 0.00 73 1020.9
20260905131035 78 193 2.0 4.0 0.00 0.00 0.00 73 1020.9
20260905130532 78 145 2.0 4.0 0.00 0.00 0.00 73 1021.0
20260905130033 78 187 2.0 7.0 0.00 0.00 0.00 73 1021.0
20260905125534 78 103 3.0 7.0 0.00 0.00 0.00 72 1021.0
20260905125032 79 150 2.0 4.0 0.00 0.00 0.00 71 1021.0
20260905124533 79 187 1.0 4.0 0.00 0.00 0.00 71 1021.0
20260905124033 79 208 1.0 4.0 0.00 0.00 0.00 71 1021.1
20260905123536 78 222 1.0 5.0 0.00 0.00 0.00 72 1021.2
20260905123033 78 199 2.0 5.0 0.00 0.00 0.00 71 1021.2
20260905122525 78 158 2.0 5.0 0.00 0.00 0.00 72 1021.3
20260905122030 78 147 2.0 5.0 0.00 0.00 0.00 71 1021.4
20260905121528 78 177 2.0 5.0 0.00 0.00 0.00 72 1021.4
20260905121023 77 162 1.0 5.0 0.00 0.00 0.00 72 1021.3
20260905120520 77 177 1.0 4.0 0.00 0.00 0.00 72 1021.4
20260905120056 77 143 2.0 7.0 0.00 0.00 0.00 71 1021.4
20260905120036 77 116 2.0 7.0 0.00 0.00 0.00 72 1021.4
20260905115018 77 186 2.0 7.0 0.00 0.00 0.00 71 1021.4
20260905114513 77 181 3.0 7.0 0.00 0.00 0.00 71 1021.3
20260905114014 77 111 3.0 8.0 0.00 0.00 0.00 73 1021.3
20260905113516 77 168 3.0 8.0 0.00 0.00 0.00 73 1021.4
20260905113014 77 181 3.0 7.0 0.00 0.00 0.00 73 1021.3
20260905112527 77 120 3.0 7.0 0.00 0.00 0.00 74 1021.3
20260905112015 77 149 3.0 7.0 0.00 0.00 0.00 74 1021.4
20260905111515 77 145 2.0 7.0 0.00 0.00 0.00 75 1021.3
20260905111013 77 214 3.0 7.0 0.00 0.00 0.00 74 1021.4
20260905110516 77 114 3.0 7.0 0.00 0.00 0.00 74 1021.5
20260905110012 77 90 3.0 8.0 0.00 0.00 0.00 74 1021.4
20260905105511 77 149 2.0 8.0 0.00 0.00 0.00 74 1021.5
20260905105012 77 233 2.0 6.0 0.00 0.00 0.00 74 1021.4
20260905104512 77 88 2.0 6.0 0.00 0.00 0.00 73 1021.4
20260905104014 77 156 2.0 6.0 0.00 0.00 0.00 73 1021.4
20260905103754 78 201 2.0 6.0 0.00 0.00 0.00 72 1021.3
20260905103410 77 39 2.0 5.0 0.00 0.00 0.00 73 1021.4
20260905103406 78 127 2.0 5.0 0.00 0.00 0.00 72 1021.3
20260905102535 78 199 1.0 5.0 0.00 0.00 0.00 72 1021.4
20260905101511 77 156 2.0 5.0 0.00 0.00 0.00 73 1021.5
20260905101007 77 192 2.0 7.0 0.00 0.00 0.00 73 1021.4
20260905100506 77 193 2.0 7.0 0.00 0.00 0.00 72 1021.4
20260905100005 77 255 2.0 6.0 0.00 0.00 0.00 73 1021.4
20260905095507 77 102 2.0 6.0 0.00 0.00 0.00 72 1021.4
20260905095007 77 160 2.0 5.0 0.00 0.00 0.00 73 1021.4
20260905094505 77 100 2.0 7.0 0.00 0.00 0.00 71 1021.4
20260905094005 78 143 2.0 7.0 0.00 0.00 0.00 70 1021.4
20260905093502 78 149 3.0 7.0 0.00 0.00 0.00 70 1021.4
20260905093001 78 160 2.0 7.0 0.00 0.00 0.00 72 1021.4
20260905092503 77 158 2.0 6.0 0.00 0.00 0.00 72 1021.4
20260905092003 77 136 2.0 6.0 0.00 0.00 0.00 72 1021.5
20260905091501 77 208 2.0 4.0 0.00 0.00 0.00 72 1021.4
20260905091001 77 118 2.0 4.0 0.00 0.00 0.00 71 1021.5
20260905090503 77 220 2.0 6.0 0.00 0.00 0.00 71 1021.5
20260905090002 77 196 2.0 6.0 0.00 0.00 0.00 71 1021.4
20260905085459 77 181 2.0 5.0 0.00 0.00 0.00 71 1021.3
20260905085000 77 221 3.0 6.0 0.00 0.00 0.00 71 1021.3
20260905084736 77 95 2.0 6.0 0.00 0.00 0.00 71 1021.3
20260905084001 77 137 2.0 6.0 0.00 0.00 0.00 71 1021.2
20260905083455 76 215 2.0 6.0 0.00 0.00 0.00 71 1021.1
20260905082955 76 183 3.0 6.0 0.00 0.00 0.00 70 1021.0
20260905082455 76 95 2.0 6.0 0.00 0.00 0.00 70 1021.0
20260905081958 76 108 2.0 6.0 0.00 0.00 0.00 70 1020.9
20260905081458 75 166 2.0 6.0 0.00 0.00 0.00 70 1021.0
20260905080955 75 82 2.0 4.0 0.00 0.00 0.00 70 1021.1
20260905080456 75 114 2.0 5.0 0.00 0.00 0.00 71 1021.1
20260905075957 75 136 2.0 5.0 0.00 0.00 0.00 71 1021.0
20260905075455 75 121 1.0 4.0 0.00 0.00 0.00 70 1021.1
20260905074955 75 156 1.0 3.0 0.00 0.00 0.00 71 1021.0
20260905074455 75 154 1.0 3.0 0.00 0.00 0.00 71 1021.0
20260905073955 75 154 1.0 3.0 0.00 0.00 0.00 70 1021.0
20260905073455 75 193 1.0 3.0 0.00 0.00 0.00 70 1020.9
20260905073001 75 101 1.0 3.0 0.00 0.00 0.00 70 1020.8
20260905072458 75 101 1.0 3.0 0.00 0.00 0.00 70 1020.8
20260905071957 74 100 1.0 4.0 0.00 0.00 0.00 70 1020.9
20260905071456 74 98 1.0 4.0 0.00 0.00 0.00 70 1020.7
20260905070954 74 94 1.0 3.0 0.00 0.00 0.00 70 1020.7
20260905070453 74 89 1.0 3.0 0.00 0.00 0.00 70 1020.8
20260905065953 73 89 1.0 3.0 0.00 0.00 0.00 70 1020.8
20260905065453 73 89 1.0 3.0 0.00 0.00 0.00 70 1020.8
20260905064949 73 89 0.0 2.0 0.00 0.00 0.00 70 1020.9
20260905064449 73 89 0.0 2.0 0.00 0.00 0.00 70 1020.9
20260905063949 73 89 0.0 1.0 0.00 0.00 0.00 70 1020.8
20260905063725 73 89 0.0 2.0 0.00 0.00 0.00 70 1020.8
20260905062946 73 89 1.0 3.0 0.00 0.00 0.00 70 1020.7
20260905062450 73 89 1.0 3.0 0.00 0.00 0.00 70 1020.7
20260905061944 73 88 1.0 3.0 0.00 0.00 0.00 70 1020.8
20260905061445 73 88 1.0 3.0 0.00 0.00 0.00 70 1020.7
20260905060945 73 87 1.0 3.0 0.00 0.00 0.00 70 1020.6
20260905060445 72 87 1.0 3.0 0.00 0.00 0.00 71 1020.6
20260905055944 72 87 0.0 3.0 0.00 0.00 0.00 72 1020.7
20260905055721 72 354 0.0 2.0 0.00 0.00 0.00 73 1020.6
20260905055222 71 354 0.0 2.0 0.00 0.00 0.00 73 1020.7
20260905054744 71 354 0.0 1.0 0.00 0.00 0.00 73 1020.5
20260905053939 71 354 0.0 1.0 0.00 0.00 0.00 73 1020.6
20260905053444 71 354 0.0 2.0 0.00 0.00 0.00 73 1020.4
20260905052943 71 354 1.0 2.0 0.00 0.00 0.00 73 1020.3
20260905052435 71 354 1.0 2.0 0.00 0.00 0.00 73 1020.3
20260905051935 71 354 1.0 2.0 0.00 0.00 0.00 73 1020.3
20260905051436 70 354 1.0 2.0 0.00 0.00 0.00 73 1020.3
20260905050935 70 354 1.0 2.0 0.00 0.00 0.00 74 1020.3
20260905050442 70 354 1.0 2.0 0.00 0.00 0.00 73 1020.3
20260905045935 70 354 1.0 2.0 0.00 0.00 0.00 73 1020.2
20260905045725 70 354 1.0 2.0 0.00 0.00 0.00 73 1020.1
20260905045221 70 354 1.0 3.0 0.00 0.00 0.00 73 1020.1
20260905044713 70 354 1.0 3.0 0.00 0.00 0.00 73 1020.2
20260905044218 70 354 1.0 2.0 0.00 0.00 0.00 73 1020.0
20260905043438 70 354 1.0 2.0 0.00 0.00 0.00 73 1020.0
20260905042931 70 354 1.0 2.0 0.00 0.00 0.00 72 1020.1
20260905042432 70 354 2.0 3.0 0.00 0.00 0.00 72 1020.1
20260905042228 69 354 2.0 3.0 0.00 0.00 0.00 71 1020.0
20260905041431 69 354 1.0 2.0 0.00 0.00 0.00 71 1020.0
20260905040929 69 354 1.0 2.0 0.00 0.00 0.00 71 1020.0
20260905040428 69 354 1.0 2.0 0.00 0.00 0.00 70 1020.0
20260905035930 69 354 1.0 3.0 0.00 0.00 0.00 70 1020.1
20260905035428 69 354 1.0 3.0 0.00 0.00 0.00 70 1020.2
20260905034922 69 328 1.0 2.0 0.00 0.00 0.00 71 1020.2
20260905034417 69 328 2.0 3.0 0.00 0.00 0.00 71 1020.1
20260905033914 69 328 1.0 3.0 0.00 0.00 0.00 72 1020.2
20260905033413 69 328 1.0 3.0 0.00 0.00 0.00 72 1020.2
20260905032910 70 328 1.0 2.0 0.00 0.00 0.00 73 1020.3
20260905032409 70 328 1.0 2.0 0.00 0.00 0.00 74 1020.3
20260905031909 70 328 1.0 2.0 0.00 0.00 0.00 74 1020.3
20260905031408 70 329 1.0 2.0 0.00 0.00 0.00 74 1020.3
20260905030911 70 329 1.0 2.0 0.00 0.00 0.00 74 1020.3
20260905030406 70 328 1.0 3.0 0.00 0.00 0.00 74 1020.4
20260905025906 70 312 1.0 3.0 0.00 0.00 0.00 74 1020.3
20260905025405 70 292 1.0 2.0 0.00 0.00 0.00 74 1020.3
20260905024906 70 292 1.0 2.0 0.00 0.00 0.00 74 1020.3
20260905024404 70 292 1.0 2.0 0.00 0.00 0.00 74 1020.4
20260905023904 70 292 1.0 2.0 0.00 0.00 0.00 75 1020.5
20260905023404 70 292 1.0 2.0 0.00 0.00 0.00 75 1020.4
20260905022858 70 292 1.0 2.0 0.00 0.00 0.00 75 1020.5
20260905022353 71 292 1.0 2.0 0.00 0.00 0.00 75 1020.6
20260905021846 71 292 1.0 2.0 0.00 0.00 0.00 75 1020.6
20260905021352 71 292 1.0 2.0 0.00 0.00 0.00 76 1020.5
20260905021128 71 292 1.0 2.0 0.00 0.00 0.00 77 1020.6
20260905020345 71 292 0.0 2.0 0.00 0.00 0.00 78 1020.6
20260905015844 71 292 1.0 2.0 0.00 0.00 0.00 78 1020.6
20260905015338 71 292 1.0 2.0 0.00 0.00 0.00 78 1020.7
20260905014836 71 292 0.0 2.0 0.00 0.00 0.00 77 1020.6
20260905014337 71 292 0.0 1.0 0.00 0.00 0.00 78 1020.6
20260905013837 71 292 0.0 1.0 0.00 0.00 0.00 77 1020.8
20260905013335 71 292 1.0 4.0 0.00 0.00 0.00 76 1020.7
20260905013120 72 292 2.0 4.0 0.00 0.00 0.00 76 1020.6
20260905012333 72 336 2.0 4.0 0.00 0.00 0.00 76 1020.6
20260905011833 72 307 1.0 3.0 0.00 0.00 0.00 76 1020.5
20260905011332 72 307 2.0 4.0 0.00 0.00 0.00 76 1020.6
20260905010835 72 307 2.0 4.0 0.00 0.00 0.00 75 1020.6
20260905010334 72 289 2.0 4.0 0.00 0.00 0.00 73 1020.5
20260905005832 72 291 2.0 4.0 0.00 0.00 0.00 72 1020.5
20260905005332 72 299 2.0 4.0 0.00 0.00 0.00 72 1020.5
20260905004834 72 283 2.0 4.0 0.00 0.00 0.00 72 1020.6
20260905004334 72 349 2.0 3.0 0.00 0.00 0.00 72 1020.6
20260905003832 72 349 2.0 3.0 0.00 0.00 0.00 73 1020.7
20260905003333 72 349 2.0 3.0 0.00 0.00 0.00 72 1020.7
20260905002833 72 349 2.0 3.0 0.00 0.00 0.00 70 1020.6
20260905002337 72 349 2.0 2.0 0.00 0.00 0.00 68 1020.7
20260905001838 72 349 2.0 2.0 0.00 0.00 0.00 65 1020.7
20260905001333 72 349 2.0 3.0 0.00 0.00 0.00 63 1020.7
20260905000836 72 349 2.0 3.0 0.00 0.00 0.00 62 1020.8
20260905000621 73 349 2.0 3.0 0.00 0.00 0.00 63 1020.8
20260905000149 73 349 2.0 3.0 0.00 0.00 0.00 62 1020.9
20260904235334 73 349 2.0 3.0 0.00 0.00 0.00 61 1020.9
20260904234835 73 349 2.0 3.0 0.00 0.00 0.00 60 1021.0
20260904234624 73 349 2.0 3.0 0.00 0.00 0.00 60 1021.0
20260904233834 73 349 2.0 3.0 0.00 0.00 0.00 60 1021.1
20260904233334 73 349 2.0 3.0 0.00 0.00 0.00 58 1021.0
20260904232833 73 349 2.0 3.0 0.00 0.00 0.00 55 1020.9
20260904232334 73 349 2.0 3.0 0.00 0.00 0.00 54 1021.0
20260904231833 73 349 2.0 3.0 0.00 0.00 0.00 54 1021.0
20260904231332 73 349 2.0 3.0 0.00 0.00 0.00 56 1021.0
20260904230834 73 349 2.0 3.0 0.00 0.00 0.00 54 1021.0
20260904230333 73 349 2.0 3.0 0.00 0.00 0.00 52 1021.1
20260904225833 73 349 2.0 3.0 0.00 0.00 0.00 52 1021.2
20260904225612 73 349 2.0 3.0 0.00 0.00 0.00 51 1021.2
20260904224837 73 349 2.0 3.0 0.00 0.00 0.00 53 1021.2
20260904224335 73 337 2.0 3.0 0.00 0.00 0.00 59 1021.2
20260904223833 73 336 2.0 4.0 0.00 0.00 0.00 60 1021.2
20260904223334 73 336 2.0 4.0 0.00 0.00 0.00 61 1021.1
20260904222835 73 342 2.0 3.0 0.00 0.00 0.00 61 1021.1
20260904222334 73 343 2.0 3.0 0.00 0.00 0.00 60 1021.0
20260904221837 73 337 2.0 3.0 0.00 0.00 0.00 58 1021.0
20260904221338 73 332 2.0 4.0 0.00 0.00 0.00 57 1021.1
20260904221136 73 328 2.0 4.0 0.00 0.00 0.00 59 1021.2
20260904220332 73 345 2.0 3.0 0.00 0.00 0.00 60 1021.3
20260904215832 73 345 2.0 3.0 0.00 0.00 0.00 61 1021.3
20260904215334 73 345 2.0 3.0 0.00 0.00 0.00 61 1021.4
20260904215108 73 345 2.0 3.0 0.00 0.00 0.00 59 1021.3
20260904214332 73 345 2.0 3.0 0.00 0.00 0.00 61 1021.3
20260904213833 73 340 2.0 3.0 0.00 0.00 0.00 61 1021.3
20260904213333 73 339 2.0 3.0 0.00 0.00 0.00 61 1021.4
20260904212833 74 339 2.0 3.0 0.00 0.00 0.00 61 1021.4
20260904212332 74 354 2.0 3.0 0.00 0.00 0.00 62 1021.3
20260904211831 74 354 2.0 3.0 0.00 0.00 0.00 63 1021.3
20260904211333 74 354 2.0 3.0 0.00 0.00 0.00 63 1021.3
20260904210833 74 354 2.0 3.0 0.00 0.00 0.00 62 1021.3
20260904210332 74 354 2.0 3.0 0.00 0.00 0.00 61 1021.4
20260904205832 74 354 2.0 3.0 0.00 0.00 0.00 59 1021.4
20260904205333 74 354 2.0 3.0 0.00 0.00 0.00 57 1021.4
20260904205117 74 354 2.0 3.0 0.00 0.00 0.00 56 1021.4
20260904204334 74 354 2.0 3.0 0.00 0.00 0.00 57 1021.5
20260904203825 74 354 2.0 3.0 0.00 0.00 0.00 54 1021.5
20260904203317 74 354 2.0 3.0 0.00 0.00 0.00 54 1021.5
20260904202811 74 354 2.0 3.0 0.00 0.00 0.00 54 1021.5
20260904202306 74 354 2.0 3.0 0.00 0.00 0.00 54 1021.5
20260904201809 74 354 2.0 3.0 0.00 0.00 0.00 54 1021.6
20260904201306 74 345 2.0 3.0 0.00 0.00 0.00 54 1021.6
20260904200806 74 345 2.0 3.0 0.00 0.00 0.00 53 1021.5
20260904200306 74 344 2.0 3.0 0.00 0.00 0.00 54 1021.5
20260904195807 74 344 2.0 3.0 0.00 0.00 0.00 55 1021.5
20260904195306 74 343 2.0 3.0 0.00 0.00 0.00 55 1021.5
20260904194807 74 344 2.0 3.0 0.00 0.00 0.00 54 1021.5
20260904194308 75 344 2.0 3.0 0.00 0.00 0.00 52 1021.4
20260904193806 75 344 2.0 3.0 0.00 0.00 0.00 53 1021.4
20260904193307 75 341 2.0 3.0 0.00 0.00 0.00 54 1021.4
20260904193045 75 341 2.0 3.0 0.00 0.00 0.00 52 1021.4
20260904192306 75 341 2.0 3.0 0.00 0.00 0.00 54 1021.4
20260904191838 75 341 2.0 3.0 0.00 0.00 0.00 51 1021.4
20260904191825 75 341 2.0 3.0 0.00 0.00 0.00 54 1021.4
20260904190817 75 341 2.0 3.0 0.00 0.00 0.00 51 1021.4
20260904190305 75 341 2.0 3.0 0.00 0.00 0.00 50 1021.4
20260904185805 75 341 2.0 3.0 0.00 0.00 0.00 48 1021.3
20260904185306 75 341 2.0 3.0 0.00 0.00 0.00 48 1021.3
20260904184806 75 341 3.0 3.0 0.00 0.00 0.00 48 1021.2
20260904184305 75 341 2.0 3.0 0.00 0.00 0.00 48 1021.2
20260904183805 75 343 2.0 4.0 0.00 0.00 0.00 50 1021.2
20260904183552 75 343 2.0 4.0 0.00 0.00 0.00 49 1021.1
20260904182805 75 343 2.0 3.0 0.00 0.00 0.00 49 1021.1
20260904182306 75 343 2.0 3.0 0.00 0.00 0.00 48 1021.0
20260904181806 75 343 2.0 3.0 0.00 0.00 0.00 48 1021.1
20260904181547 75 344 3.0 3.0 0.00 0.00 0.00 47 1021.1
20260904180805 75 344 3.0 4.0 0.00 0.00 0.00 47 1021.0
20260904180306 75 347 2.0 4.0 0.00 0.00 0.00 49 1021.0
20260904175806 76 347 2.0 3.0 0.00 0.00 0.00 52 1020.9
20260904175306 76 348 2.0 3.0 0.00 0.00 0.00 53 1021.0
20260904174807 76 342 2.0 3.0 0.00 0.00 0.00 54 1020.9
20260904174307 76 339 2.0 3.0 0.00 0.00 0.00 55 1020.9
20260904173806 76 339 2.0 3.0 0.00 0.00 0.00 55 1020.9
20260904173306 76 347 2.0 3.0 0.00 0.00 0.00 54 1020.9
20260904172808 76 347 2.0 3.0 0.00 0.00 0.00 54 1021.0
20260904172306 76 347 2.0 3.0 0.00 0.00 0.00 54 1020.9
20260904171808 76 341 2.0 3.0 0.00 0.00 0.00 54 1021.0
20260904171308 76 341 2.0 3.0 0.00 0.00 0.00 56 1021.0
20260904170807 76 341 2.0 3.0 0.00 0.00 0.00 58 1021.1
20260904170306 76 341 2.0 3.0 0.00 0.00 0.00 59 1021.1
20260904165800 76 342 2.0 3.0 0.00 0.00 0.00 61 1021.2
20260904165251 77 342 2.0 3.0 0.00 0.00 0.00 61 1021.1
20260904164741 77 337 2.0 3.0 0.00 0.00 0.00 59 1021.2
20260904164235 77 334 2.0 3.0 0.00 0.00 0.00 60 1021.2
20260904164024 77 350 2.0 3.0 0.00 0.00 0.00 63 1021.2
20260904163232 77 350 2.0 3.0 0.00 0.00 0.00 63 1021.3
20260904162733 77 4 2.0 3.0 0.00 0.00 0.00 62 1021.3
20260904162232 77 4 2.0 3.0 0.00 0.00 0.00 65 1021.4
20260904161732 77 4 2.0 3.0 0.00 0.00 0.00 66 1021.3
20260904161233 77 4 2.0 3.0 0.00 0.00 0.00 66 1021.4
20260904160732 77 4 2.0 3.0 0.00 0.00 0.00 65 1021.3
20260904160325 77 4 2.0 3.0 0.00 0.00 0.00 62 1021.4
20260904160304 77 4 2.0 3.0 0.00 0.00 0.00 64 1021.4